Weather History for Indianapolis, IN

Change the Weather History Date:

Saturday, September 21, 2013

  Actual Average (KEYE) Record (KEYE)
Temperature  
Mean Temperature 60 °F 65 °F  
Max Temperature 71 °F 75 °F 93 °F (2010)
Min Temperature 49 °F 55 °F 42 °F (2006)
Degree Days  
Heating Degree Days 6 3  
Month to date heating degree days 19  
Since 1 July heating degree days 22  
Cooling Degree Days 0 3  
Month to date cooling degree days 106  
Year to date cooling degree days 1026  
Growing Degree Days 10 (Base 50)    
Moisture  
Dew Point 49 °F    
Average Humidity 68    
Maximum Humidity 89    
Minimum Humidity 37    
Precipitation  
Precipitation 0.03 in 0.07 in 1.42 in (2012)
Month to date precipitation 1.56  
Year to date precipitation 30.21  
Sea Level Pressure  
Sea Level Pressure 29.85 in    
Wind  
Wind Speed 7 mph (NW)    
Max Wind Speed 13 mph    
Max Gust Speed 20 mph    
Visibility 10 miles    
Events Rain    
T = Trace of Precipitation, MM = Missing Value Source: NWS Daily Summary

Daily Weather History Graph

Daily Weather History Graph

Search for Another Location

Airport:

Trip Planner

Search our weather history database for the weather conditions in past years. The results will help you decide how hot, cold, wet, or windy it might be!

Date:

Astronomy

Sep. 21, 2013 Rise Set
Actual Time 7:31 AM EDT 7:43 PM EDT
Civil Twilight 7:04 AM EDT 8:10 PM EDT
Nautical Twilight 6:33 AM EDT 8:42 PM EDT
Astronomical Twilight 6:00 AM EDT 9:14 PM EDT
Moon 8:53 PM EDT (9/21) 9:49 AM EDT (9/21)
Length of Visible Light 13h 05m
Length of Day
12h 11m
Waning Gibbous, 94% of the Moon is Illuminated
Sep 21
Waning Gibbous
Sep 26
Last Quarter
Oct 4
New
Oct 11
First Quarter
Oct 18
Full

Hourly Weather History & Observations

Time (EDT) Temp. Dew Point Humidity Pressure Visibility Wind Dir Wind Speed Gust Speed Precip Events Conditions
12:15 AM 64.2 °F 60.8 °F 89% 29.84 in 7.0 mi WNW 8.1 mph 19.6 mph 0.02 in Rain Light Rain
12:35 AM 63.7 °F 59.9 °F 87% 29.84 in 10.0 mi NW 4.6 mph - 0.03 in Rain Light Rain
12:55 AM 63.5 °F 59.4 °F 86% 29.84 in 10.0 mi WNW 4.6 mph - 0.03 in Rain Rain
1:15 AM 63.0 °F 58.3 °F 85% 29.84 in 10.0 mi NW 5.8 mph - N/A   Overcast
1:35 AM 62.6 °F 58.1 °F 85% 29.84 in 10.0 mi NW 4.6 mph - N/A   Overcast
1:55 AM 61.0 °F 52.9 °F 75% 29.84 in 10.0 mi NW 9.2 mph 17.3 mph N/A   Overcast
2:15 AM 60.1 °F 52.9 °F 77% 29.84 in 10.0 mi NW 5.8 mph - N/A   Mostly Cloudy
2:35 AM 59.9 °F 52.9 °F 78% 29.83 in 10.0 mi NW 8.1 mph - N/A   Mostly Cloudy
2:55 AM 59.5 °F 52.2 °F 77% 29.83 in 10.0 mi NW 6.9 mph - N/A   Mostly Cloudy
3:15 AM 59.0 °F 52.0 °F 78% 29.83 in 10.0 mi NW 4.6 mph - N/A   Scattered Clouds
3:35 AM 58.5 °F 52.2 °F 80% 29.82 in 10.0 mi NW 3.5 mph - N/A   Clear
3:55 AM 58.1 °F 52.3 °F 81% 29.81 in 10.0 mi WNW 4.6 mph - N/A   Clear
4:15 AM 58.1 °F 52.2 °F 81% 29.81 in 10.0 mi NW 4.6 mph - N/A   Clear
4:35 AM 57.6 °F 52.0 °F 82% 29.81 in 10.0 mi NW 4.6 mph - N/A   Clear
4:55 AM 57.2 °F 51.8 °F 82% 29.80 in 10.0 mi NW 6.9 mph - N/A   Clear
5:15 AM 56.5 °F 51.6 °F 84% 29.80 in 10.0 mi NW 4.6 mph - N/A   Clear
5:35 AM 55.9 °F 51.3 °F 84% 29.80 in 10.0 mi NW 5.8 mph - N/A   Clear
5:55 AM 55.6 °F 51.1 °F 85% 29.80 in 10.0 mi NW 4.6 mph - N/A   Clear
6:15 AM 54.9 °F 50.9 °F 86% 29.80 in 10.0 mi NW 3.5 mph - N/A   Clear
6:35 AM 54.5 °F 50.5 °F 86% 29.81 in 10.0 mi NW 4.6 mph - N/A   Clear
6:55 AM 54.0 °F 50.4 °F 88% 29.81 in 10.0 mi NW 4.6 mph - N/A   Clear
7:15 AM 53.8 °F 50.2 °F 88% 29.81 in 10.0 mi NW 4.6 mph - N/A   Clear
7:35 AM 53.6 °F 50.0 °F 88% 29.82 in 10.0 mi NW 4.6 mph - N/A   Clear
7:55 AM 53.6 °F 50.0 °F 88% 29.83 in 10.0 mi NW 4.6 mph - N/A   Clear
8:15 AM 53.6 °F 50.0 °F 88% 29.83 in 10.0 mi NW 6.9 mph - N/A   Clear
8:35 AM 53.8 °F 50.5 °F 89% 29.83 in 10.0 mi WNW 5.8 mph - N/A   Clear
8:55 AM 55.0 °F 51.6 °F 88% 29.83 in 10.0 mi NW 6.9 mph - N/A   Scattered Clouds
9:15 AM 56.7 °F 52.3 °F 85% 29.84 in 10.0 mi WNW 8.1 mph - N/A   Scattered Clouds
9:35 AM 58.3 °F 53.2 °F 83% 29.84 in 10.0 mi NW 9.2 mph - N/A   Scattered Clouds
9:55 AM 59.2 °F 53.2 °F 81% 29.85 in 10.0 mi NW 8.1 mph - N/A   Scattered Clouds
10:15 AM 60.1 °F 53.6 °F 79% 29.85 in 10.0 mi NNW 6.9 mph - N/A   Mostly Cloudy
10:35 AM 61.2 °F 53.4 °F 76% 29.86 in 10.0 mi NW 9.2 mph - N/A   Mostly Cloudy
10:55 AM 61.2 °F 53.4 °F 76% 29.86 in 10.0 mi NW 9.2 mph - N/A   Mostly Cloudy
11:15 AM 62.2 °F 53.2 °F 72% 29.86 in 10.0 mi NNW 9.2 mph - N/A   Mostly Cloudy
11:35 AM 64.4 °F 53.1 °F 67% 29.86 in 10.0 mi WNW 10.4 mph - N/A   Mostly Cloudy
11:55 AM 65.3 °F 52.0 °F 62% 29.86 in 10.0 mi NNW 6.9 mph - N/A   Scattered Clouds
12:15 PM 66.4 °F 50.9 °F 57% 29.86 in 10.0 mi NW 10.4 mph - N/A   Scattered Clouds
12:35 PM 66.4 °F 48.0 °F 52% 29.86 in 10.0 mi NNW 11.5 mph 17.3 mph N/A   Scattered Clouds
12:55 PM 68.0 °F 46.4 °F 46% 29.86 in 10.0 mi NNW 12.7 mph 18.4 mph N/A   Scattered Clouds
1:15 PM 68.5 °F 45.5 °F 44% 29.86 in 10.0 mi NW 11.5 mph 18.4 mph N/A   Scattered Clouds
1:35 PM 69.3 °F 45.1 °F 42% 29.86 in 10.0 mi NW 10.4 mph 19.6 mph N/A   Mostly Cloudy
1:55 PM 68.5 °F 45.1 °F 43% 29.86 in 10.0 mi NW 9.2 mph 19.6 mph N/A   Scattered Clouds
2:15 PM 70.2 °F 46.0 °F 42% 29.85 in 10.0 mi NW 10.4 mph - N/A   Scattered Clouds
2:35 PM 69.6 °F 44.4 °F 40% 29.85 in 10.0 mi NNW 10.4 mph 19.6 mph N/A   Scattered Clouds
2:55 PM 67.8 °F 42.3 °F 39% 29.85 in 10.0 mi NW 9.2 mph 19.6 mph N/A   Scattered Clouds
3:15 PM 69.8 °F 43.5 °F 39% 29.85 in 10.0 mi NW 12.7 mph 16.1 mph N/A   Mostly Cloudy
3:35 PM 67.8 °F 45.1 °F 44% 29.85 in 10.0 mi NNW 12.7 mph 16.1 mph N/A   Overcast
3:55 PM 68.4 °F 43.7 °F 41% 29.85 in 10.0 mi NW 10.4 mph - N/A   Mostly Cloudy
4:15 PM 70.7 °F 43.5 °F 37% 29.85 in 10.0 mi NW 12.7 mph 16.1 mph N/A   Mostly Cloudy
4:35 PM 69.8 °F 43.9 °F 39% 29.85 in 10.0 mi North 9.2 mph 16.1 mph N/A   Mostly Cloudy
4:55 PM 69.8 °F 44.1 °F 39% 29.84 in 10.0 mi NNW 6.9 mph - N/A   Overcast
5:15 PM 68.4 °F 42.8 °F 40% 29.85 in 10.0 mi NNW 5.8 mph 10.4 mph N/A   Scattered Clouds
5:35 PM 67.5 °F 41.7 °F 39% 29.85 in 10.0 mi NNW 11.5 mph - N/A   Clear
5:55 PM 68.9 °F 41.7 °F 37% 29.85 in 10.0 mi WNW 5.8 mph - N/A   Clear
6:15 PM 66.6 °F 41.9 °F 41% 29.86 in 10.0 mi NW 6.9 mph - N/A   Clear
6:35 PM 66.2 °F 42.8 °F 43% 29.86 in 10.0 mi NW 6.9 mph - N/A   Scattered Clouds
6:55 PM 66.6 °F 42.4 °F 42% 29.86 in 10.0 mi NW 6.9 mph - N/A   Scattered Clouds
7:15 PM 64.8 °F 43.5 °F 46% 29.87 in 10.0 mi NNW 4.6 mph - N/A   Clear
7:35 PM 62.1 °F 45.5 °F 55% 29.87 in 10.0 mi NNW 3.5 mph - N/A   Clear
7:55 PM 58.8 °F 47.8 °F 67% 29.87 in 10.0 mi North 4.6 mph - N/A   Clear
8:15 PM 58.6 °F 46.0 °F 63% 29.88 in 10.0 mi North 4.6 mph - N/A   Clear
8:35 PM 58.1 °F 45.9 °F 64% 29.88 in 10.0 mi North 4.6 mph - N/A   Clear
8:55 PM 56.8 °F 45.9 °F 67% 29.89 in 10.0 mi North 4.6 mph - N/A   Clear
9:15 PM 56.1 °F 45.7 °F 68% 29.89 in 10.0 mi North 4.6 mph - N/A   Clear
9:35 PM 55.2 °F 45.9 °F 71% 29.90 in 10.0 mi North 3.5 mph - N/A   Clear
9:55 PM 53.6 °F 46.4 °F 77% 29.90 in 10.0 mi North 3.5 mph - N/A   Clear
10:15 PM 52.2 °F 46.8 °F 82% 29.91 in 10.0 mi Calm Calm - N/A   Clear
10:35 PM 53.1 °F 46.6 °F 79% 29.92 in 10.0 mi NNE 4.6 mph - N/A   Clear
10:55 PM 52.2 °F 46.4 °F 81% 29.92 in 10.0 mi NNE 3.5 mph - N/A   Clear
11:15 PM 51.3 °F 46.0 °F 82% 29.92 in 10.0 mi North 3.5 mph - N/A   Clear
11:35 PM 49.5 °F 45.5 °F 86% 29.93 in 10.0 mi Calm Calm - N/A   Clear
11:55 PM 49.3 °F 45.9 °F 88% 29.93 in 10.0 mi Calm Calm - N/A   Clear